Preview of NWS' New Version of Forecast
This preview is not operational and should not be used for support decisions.

Regional Weather Roundup (RWR)

Issued by National Weather Service (NWS)

                            
000
ASUS45 KCYS 170410
RWRWY 

WYOMING REGIONAL WEATHER ROUNDUP
NATIONAL WEATHER SERVICE CHEYENNE WY
900 PM MST SAT FEB 16 2019

NOTE:  "FAIR" INDICATES FEW OR NO CLOUDS BELOW 12,000 FEET
WITH NO SIGNIFICANT WEATHER AND/OR OBSTRUCTIONS TO VISIBILITY.

WYZ001-170500-
YELLOWSTONE NATIONAL PARK
  
CITY           SKY/WX    TMP DP  RH WIND       PRES   REMARKS
LK YELLOWSTONE   N/A      4   0  83 CALM      29.68S                  
W YELLOWSTONE  NOT AVBL                                               

$$
WYZ002>013-054>058-071-098>099-170500-
NORTHERN WYOMING
  
CITY           SKY/WX    TMP DP  RH WIND       PRES   REMARKS
JACKSON        LGT SNOW  18  14  84 SW3       29.73R FOG              
CODY           FAIR      14  11  87 CALM      29.73R                  
GREYBULL       CLOUDY    23  17  78 NW10      29.74R WCI  12          
WORLAND        FAIR      21  16  81 S3        29.73R                  
SHERIDAN       CLOUDY    10   6  84 NW18      29.84R WCI  -8          
BUFFALO        FAIR      10   5  80 N17       29.71S WCI  -8          
GILLETTE       CLOUDY     8   4  83 N14       29.76R WCI  -8          
HULETT         LGT SNOW   9   3  78 MISG      29.77                   
NEWCASTLE        N/A     10   3  72 NW15G21   29.70  WCI  -6          

$$
WYZ014>020-022>026-101>103-170500-
CENTRAL WYOMING
  
CITY           SKY/WX    TMP DP  RH WIND       PRES   REMARKS
BIG PINEY      FAIR       1  -3  83 CALM      29.72S                  
PINEDALE       FAIR       0  -6  78 NW8       29.72  WCI -15          
DUBOIS         FAIR      12   3  67 NW7       29.65  WCI   2          
LANDER         FAIR      23   2  40 W5        29.69R WCI  17          
RIVERTON       FAIR      20  13  74 NW6       29.69S WCI  12          
CASPER         CLOUDY    20  17  88 NE3       29.69R                  
DOUGLAS        CLOUDY    23  18  81 N10       29.70R WCI  12          

$$
WYZ021-027>030-104>119-170500-
SOUTHERN WYOMING
  
CITY           SKY/WX    TMP DP  RH WIND       PRES   REMARKS
EVANSTON       FAIR      11   2  67 SW10      29.74S WCI  -3          
KEMMERER       FAIR      12   7  79 SW3       29.72                   
FORT BRIDGER   CLEAR     14   5  67 NE17      29.76S WCI  -3          
ROCK SPRINGS   FAIR      16   9  74 SW16      29.74R WCI   1          
DIXON          FAIR      11   2  70 S5        29.79R WCI   2          
RAWLINS        FAIR      18   8  65 W21G28    29.68R WCI   1          
SARATOGA       FAIR      18  10  73 SW21G26   29.68R WCI   1          
LARAMIE        FAIR       9   5  84 W8        29.62R WCI  -3          
CHEYENNE       FAIR      22  14  71 N13       29.64R WCI  10          
TORRINGTON     FAIR      25  18  74 NW12      29.67R WCI  14          
PINE BLUFFS    CLOUDY    23  19  86 N10       29.66R WCI  12          

$$
  

000
ASUS45 KCYS 170410
RWRWY 

WYOMING REGIONAL WEATHER ROUNDUP
NATIONAL WEATHER SERVICE CHEYENNE WY
900 PM MST SAT FEB 16 2019

NOTE:  "FAIR" INDICATES FEW OR NO CLOUDS BELOW 12,000 FEET
WITH NO SIGNIFICANT WEATHER AND/OR OBSTRUCTIONS TO VISIBILITY.

WYZ001-170500-
...YELLOWSTONE NATIONAL PARK...
  
CITY           SKY/WX    TMP DP  RH WIND       PRES   REMARKS
LK YELLOWSTONE   N/A      4   0  83 CALM      29.68S                  
W YELLOWSTONE  NOT AVBL                                               

$$
WYZ002>013-054>058-071-098>099-170500-
...NORTHERN WYOMING...
  
CITY           SKY/WX    TMP DP  RH WIND       PRES   REMARKS
JACKSON        LGT SNOW  18  14  84 SW3       29.73R FOG              
CODY           PTCLDY    14  11  87 CALM      29.73R                  
GREYBULL       CLOUDY    23  17  78 NW10      29.74R WCI  12          
WORLAND        MOCLDY    21  16  81 S3        29.73R                  
SHERIDAN       CLOUDY    10   6  84 NW18      29.84R WCI  -8          
BUFFALO        MOCLDY    10   5  80 N17       29.71S WCI  -8          
GILLETTE       CLOUDY     8   4  83 N14       29.76R WCI  -8          
HULETT         LGT SNOW   9   3  78 MISG      29.77R                  
NEWCASTLE        N/A     10   3  72 NW15G21   29.70R WCI  -6          

$$
WYZ014>020-022>026-101>103-170500-
...CENTRAL WYOMING...
  
CITY           SKY/WX    TMP DP  RH WIND       PRES   REMARKS
BIG PINEY      PTCLDY     1  -3  83 CALM      29.72S                  
PINEDALE       PTCLDY     0  -6  78 NW8       29.72R WCI -15          
DUBOIS         FAIR      12   3  67 NW7       29.65S WCI   2          
LANDER         PTCLDY    23   2  40 W5        29.69R WCI  17          
RIVERTON       PTCLDY    20  13  74 NW6       29.69S WCI  12          
CASPER         CLOUDY    20  17  88 NE3       29.69R                  
DOUGLAS        CLOUDY    23  18  81 N10       29.70R WCI  12          

$$
WYZ021-027>030-104>119-170500-
...SOUTHERN WYOMING...
  
CITY           SKY/WX    TMP DP  RH WIND       PRES   REMARKS
EVANSTON       MOCLDY    11   2  67 SW10      29.74S WCI  -3          
KEMMERER       PTCLDY    12   7  79 SW3       29.72S                  
FORT BRIDGER   CLEAR     14   5  67 NE17      29.76S WCI  -3          
ROCK SPRINGS   MOCLDY    16   9  74 SW16      29.74R WCI   1          
DIXON          FAIR      11   2  70 S5        29.79R WCI   2          
RAWLINS        CLEAR     18   8  65 W21G28    29.68R WCI   1          
SARATOGA       FAIR      18  10  73 SW21G26   29.68R WCI   1          
LARAMIE        CLEAR      9   5  84 W8        29.62R WCI  -3          
CHEYENNE       MOCLDY    22  14  71 N13       29.64R WCI  10          
TORRINGTON     CLOUDY    25  18  74 NW12      29.67R WCI  14          
PINE BLUFFS    CLOUDY    23  19  86 N10       29.66R WCI  12          

$$